[{"OBJECT_NAME":"INTELSAT 902 (IS-902)","OBJECT_ID":"2001-039A","EPOCH":"2026-09-12T06:49:29.999136","MEAN_MOTION":1.00272456,"ECCENTRICITY":0.00040716,"INCLINATION":6.3307,"RA_OF_ASC_NODE":70.6791,"ARG_OF_PERICENTER":100.7704,"MEAN_ANOMALY":232.1069,"EPHEMERIS_TYPE":0,"CLASSIFICATION_TYPE":"U","NORAD_CAT_ID":26900,"ELEMENT_SET_NO":999,"REV_AT_EPOCH":9156,"BSTAR":0,"MEAN_MOTION_DOT":-0.00000295,"MEAN_MOTION_DDOT":0},{"OBJECT_NAME":"INTELSAT 904 (IS-904)","OBJECT_ID":"2002-007A","EPOCH":"2026-09-11T20:38:52.910304","MEAN_MOTION":1.0027066,"ECCENTRICITY":0.0002984,"INCLINATION":7.1312,"RA_OF_ASC_NODE":68.1081,"ARG_OF_PERICENTER":103.4307,"MEAN_ANOMALY":97.5744,"EPHEMERIS_TYPE":0,"CLASSIFICATION_TYPE":"U","NORAD_CAT_ID":27380,"ELEMENT_SET_NO":999,"REV_AT_EPOCH":5263,"BSTAR":0,"MEAN_MOTION_DOT":-0.00000238,"MEAN_MOTION_DDOT":0},{"OBJECT_NAME":"DIRECTV 5 (TEMPO 1)","OBJECT_ID":"2002-023A","EPOCH":"2026-09-12T03:06:58.836096","MEAN_MOTION":1.00272484,"ECCENTRICITY":0.00032126,"INCLINATION":5.0943,"RA_OF_ASC_NODE":74.1827,"ARG_OF_PERICENTER":106.5054,"MEAN_ANOMALY":107.1066,"EPHEMERIS_TYPE":0,"CLASSIFICATION_TYPE":"U","NORAD_CAT_ID":27426,"ELEMENT_SET_NO":999,"REV_AT_EPOCH":8899,"BSTAR":0,"MEAN_MOTION_DOT":-7e-7,"MEAN_MOTION_DDOT":0},{"OBJECT_NAME":"INTELSAT 905 (IS-905)","OBJECT_ID":"2002-027A","EPOCH":"2026-09-12T02:59:14.577792","MEAN_MOTION":1.00271565,"ECCENTRICITY":0.00030923,"INCLINATION":6.9664,"RA_OF_ASC_NODE":68.7152,"ARG_OF_PERICENTER":130.3969,"MEAN_ANOMALY":59.6424,"EPHEMERIS_TYPE":0,"CLASSIFICATION_TYPE":"U","NORAD_CAT_ID":27438,"ELEMENT_SET_NO":999,"REV_AT_EPOCH":5223,"BSTAR":0,"MEAN_MOTION_DOT":8.2e-7,"MEAN_MOTION_DDOT":0},{"OBJECT_NAME":"GALAXY 3C (G-3C)","OBJECT_ID":"2002-030A","EPOCH":"2026-09-12T03:11:20.916672","MEAN_MOTION":1.00271855,"ECCENTRICITY":0.00014301,"INCLINATION":3.9595,"RA_OF_ASC_NODE":76.8674,"ARG_OF_PERICENTER":43.8669,"MEAN_ANOMALY":183.3973,"EPHEMERIS_TYPE":0,"CLASSIFICATION_TYPE":"U","NORAD_CAT_ID":27445,"ELEMENT_SET_NO":999,"REV_AT_EPOCH":4736,"BSTAR":0,"MEAN_MOTION_DOT":-0.00000166,"MEAN_MOTION_DDOT":0},{"OBJECT_NAME":"INTELSAT 906 (IS-906)","OBJECT_ID":"2002-041A","EPOCH":"2026-09-12T02:14:03.910848","MEAN_MOTION":1.00272748,"ECCENTRICITY":0.00028675,"INCLINATION":6.0168,"RA_OF_ASC_NODE":71.8117,"ARG_OF_PERICENTER":115.9318,"MEAN_ANOMALY":261.0389,"EPHEMERIS_TYPE":0,"CLASSIFICATION_TYPE":"U","NORAD_CAT_ID":27513,"ELEMENT_SET_NO":999,"REV_AT_EPOCH":8790,"BSTAR":0,"MEAN_MOTION_DOT":0,"MEAN_MOTION_DDOT":0},{"OBJECT_NAME":"GALAXY 13 (HORIZONS-1)","OBJECT_ID":"2003-044A","EPOCH":"2026-09-12T07:44:26.494368","MEAN_MOTION":1.00273815,"ECCENTRICITY":0.0001956,"INCLINATION":1.6376,"RA_OF_ASC_NODE":82.6222,"ARG_OF_PERICENTER":92.8866,"MEAN_ANOMALY":141.9437,"EPHEMERIS_TYPE":0,"CLASSIFICATION_TYPE":"U","NORAD_CAT_ID":27954,"ELEMENT_SET_NO":999,"REV_AT_EPOCH":4744,"BSTAR":0,"MEAN_MOTION_DOT":0.00000119,"MEAN_MOTION_DDOT":0},{"OBJECT_NAME":"INTELSAT 10-02","OBJECT_ID":"2004-022A","EPOCH":"2026-09-12T07:03:28.659744","MEAN_MOTION":1.00271087,"ECCENTRICITY":0.00001198,"INCLINATION":0.045,"RA_OF_ASC_NODE":262.7124,"ARG_OF_PERICENTER":54.6562,"MEAN_ANOMALY":138.7996,"EPHEMERIS_TYPE":0,"CLASSIFICATION_TYPE":"U","NORAD_CAT_ID":28358,"ELEMENT_SET_NO":999,"REV_AT_EPOCH":8142,"BSTAR":0,"MEAN_MOTION_DOT":-2.6e-7,"MEAN_MOTION_DDOT":0},{"OBJECT_NAME":"DIRECTV 8","OBJECT_ID":"2005-019A","EPOCH":"2026-09-12T06:29:46.890240","MEAN_MOTION":1.00272003,"ECCENTRICITY":0.00029218,"INCLINATION":0.0051,"RA_OF_ASC_NODE":146.997,"ARG_OF_PERICENTER":27.327,"MEAN_ANOMALY":155.3449,"EPHEMERIS_TYPE":0,"CLASSIFICATION_TYPE":"U","NORAD_CAT_ID":28659,"ELEMENT_SET_NO":999,"REV_AT_EPOCH":7794,"BSTAR":0,"MEAN_MOTION_DOT":-1.3e-7,"MEAN_MOTION_DDOT":0},{"OBJECT_NAME":"GALAXY 28 (G-28)","OBJECT_ID":"2005-022A","EPOCH":"2026-09-12T06:55:59.377152","MEAN_MOTION":1.00272242,"ECCENTRICITY":0.00018624,"INCLINATION":3.5164,"RA_OF_ASC_NODE":77.7982,"ARG_OF_PERICENTER":100.4848,"MEAN_ANOMALY":249.9339,"EPHEMERIS_TYPE":0,"CLASSIFICATION_TYPE":"U","NORAD_CAT_ID":28702,"ELEMENT_SET_NO":999,"REV_AT_EPOCH":5284,"BSTAR":0,"MEAN_MOTION_DOT":-0.00000213,"MEAN_MOTION_DDOT":0},{"OBJECT_NAME":"GALAXY 16 (G-16)","OBJECT_ID":"2006-023A","EPOCH":"2026-09-12T04:52:48.688320","MEAN_MOTION":1.00271848,"ECCENTRICITY":0.00026047,"INCLINATION":0.0131,"RA_OF_ASC_NODE":161.0306,"ARG_OF_PERICENTER":8.7865,"MEAN_ANOMALY":155.5992,"EPHEMERIS_TYPE":0,"CLASSIFICATION_TYPE":"U","NORAD_CAT_ID":29236,"ELEMENT_SET_NO":999,"REV_AT_EPOCH":7384,"BSTAR":0,"MEAN_MOTION_DOT":-0.00000142,"MEAN_MOTION_DDOT":0},{"OBJECT_NAME":"DIRECTV 9S","OBJECT_ID":"2006-043A","EPOCH":"2026-09-12T06:27:38.778912","MEAN_MOTION":0.9909499,"ECCENTRICITY":0.00060448,"INCLINATION":2.6411,"RA_OF_ASC_NODE":79.7592,"ARG_OF_PERICENTER":195.7276,"MEAN_ANOMALY":35.9132,"EPHEMERIS_TYPE":0,"CLASSIFICATION_TYPE":"U","NORAD_CAT_ID":29494,"ELEMENT_SET_NO":999,"REV_AT_EPOCH":5225,"BSTAR":0,"MEAN_MOTION_DOT":5.5e-7,"MEAN_MOTION_DDOT":0},{"OBJECT_NAME":"GALAXY 17 (G-17)","OBJECT_ID":"2007-016B","EPOCH":"2026-09-12T06:39:30.955968","MEAN_MOTION":1.00271794,"ECCENTRICITY":0.00030327,"INCLINATION":3.1858,"RA_OF_ASC_NODE":78.7382,"ARG_OF_PERICENTER":120.017,"MEAN_ANOMALY":167.4091,"EPHEMERIS_TYPE":0,"CLASSIFICATION_TYPE":"U","NORAD_CAT_ID":31307,"ELEMENT_SET_NO":999,"REV_AT_EPOCH":7067,"BSTAR":0,"MEAN_MOTION_DOT":-0.00000219,"MEAN_MOTION_DDOT":0},{"OBJECT_NAME":"INTELSAT 11 (IS-11)","OBJECT_ID":"2007-044B","EPOCH":"2026-09-12T00:42:42.670656","MEAN_MOTION":0.9904763,"ECCENTRICITY":0.00073169,"INCLINATION":3.7856,"RA_OF_ASC_NODE":77.5491,"ARG_OF_PERICENTER":127.4501,"MEAN_ANOMALY":260.5293,"EPHEMERIS_TYPE":0,"CLASSIFICATION_TYPE":"U","NORAD_CAT_ID":32253,"ELEMENT_SET_NO":999,"REV_AT_EPOCH":6931,"BSTAR":0,"MEAN_MOTION_DOT":-0.0000012,"MEAN_MOTION_DDOT":0},{"OBJECT_NAME":"HORIZONS-2","OBJECT_ID":"2007-063B","EPOCH":"2026-09-12T06:42:38.157120","MEAN_MOTION":1.00273084,"ECCENTRICITY":0.00013552,"INCLINATION":2.8207,"RA_OF_ASC_NODE":79.482,"ARG_OF_PERICENTER":90.8607,"MEAN_ANOMALY":207.8152,"EPHEMERIS_TYPE":0,"CLASSIFICATION_TYPE":"U","NORAD_CAT_ID":32388,"ELEMENT_SET_NO":999,"REV_AT_EPOCH":6868,"BSTAR":0,"MEAN_MOTION_DOT":-0.00000267,"MEAN_MOTION_DDOT":0},{"OBJECT_NAME":"DIRECTV 11","OBJECT_ID":"2008-013A","EPOCH":"2026-09-12T04:52:48.688320","MEAN_MOTION":1.00271786,"ECCENTRICITY":0.00001513,"INCLINATION":0.0145,"RA_OF_ASC_NODE":335.0698,"ARG_OF_PERICENTER":85.1302,"MEAN_ANOMALY":265.0303,"EPHEMERIS_TYPE":0,"CLASSIFICATION_TYPE":"U","NORAD_CAT_ID":32729,"ELEMENT_SET_NO":999,"REV_AT_EPOCH":4646,"BSTAR":0,"MEAN_MOTION_DOT":-0.00000141,"MEAN_MOTION_DDOT":0},{"OBJECT_NAME":"GALAXY 18 (G-18)","OBJECT_ID":"2008-024A","EPOCH":"2026-09-12T06:28:39.497376","MEAN_MOTION":1.00272108,"ECCENTRICITY":0.00029948,"INCLINATION":0.0024,"RA_OF_ASC_NODE":143.9536,"ARG_OF_PERICENTER":34.4362,"MEAN_ANOMALY":147.0512,"EPHEMERIS_TYPE":0,"CLASSIFICATION_TYPE":"U","NORAD_CAT_ID":32951,"ELEMENT_SET_NO":999,"REV_AT_EPOCH":4672,"BSTAR":0,"MEAN_MOTION_DOT":1e-7,"MEAN_MOTION_DDOT":0},{"OBJECT_NAME":"GALAXY 19 (G-19)","OBJECT_ID":"2008-045A","EPOCH":"2026-09-12T04:53:26.128032","MEAN_MOTION":1.00272225,"ECCENTRICITY":0.00024365,"INCLINATION":0.0381,"RA_OF_ASC_NODE":247.8273,"ARG_OF_PERICENTER":281.0695,"MEAN_ANOMALY":158.6758,"EPHEMERIS_TYPE":0,"CLASSIFICATION_TYPE":"U","NORAD_CAT_ID":33376,"ELEMENT_SET_NO":999,"REV_AT_EPOCH":6577,"BSTAR":0,"MEAN_MOTION_DOT":-0.00000154,"MEAN_MOTION_DDOT":0},{"OBJECT_NAME":"FM-5","OBJECT_ID":"2009-034A","EPOCH":"2026-09-12T01:31:15.515328","MEAN_MOTION":1.00272692,"ECCENTRICITY":0.00006942,"INCLINATION":0.0439,"RA_OF_ASC_NODE":269.7388,"ARG_OF_PERICENTER":141.7504,"MEAN_ANOMALY":236.25,"EPHEMERIS_TYPE":0,"CLASSIFICATION_TYPE":"U","NORAD_CAT_ID":35493,"ELEMENT_SET_NO":999,"REV_AT_EPOCH":4751,"BSTAR":0,"MEAN_MOTION_DOT":-0.00000216,"MEAN_MOTION_DDOT":0},{"OBJECT_NAME":"INTELSAT 14 (IS-14)","OBJECT_ID":"2009-064A","EPOCH":"2026-09-12T06:50:52.367712","MEAN_MOTION":1.00272145,"ECCENTRICITY":0.00023689,"INCLINATION":0.1344,"RA_OF_ASC_NODE":84.7729,"ARG_OF_PERICENTER":84.2729,"MEAN_ANOMALY":239.9741,"EPHEMERIS_TYPE":0,"CLASSIFICATION_TYPE":"U","NORAD_CAT_ID":36097,"ELEMENT_SET_NO":999,"REV_AT_EPOCH":6147,"BSTAR":0,"MEAN_MOTION_DOT":-0.00000288,"MEAN_MOTION_DDOT":0},{"OBJECT_NAME":"INTELSAT 15 (IS-15)","OBJECT_ID":"2009-067A","EPOCH":"2026-09-12T03:22:09.729696","MEAN_MOTION":1.00269548,"ECCENTRICITY":0.00022789,"INCLINATION":0.019,"RA_OF_ASC_NODE":165.7416,"ARG_OF_PERICENTER":9.7281,"MEAN_ANOMALY":311.366,"EPHEMERIS_TYPE":0,"CLASSIFICATION_TYPE":"U","NORAD_CAT_ID":36106,"ELEMENT_SET_NO":999,"REV_AT_EPOCH":4210,"BSTAR":0,"MEAN_MOTION_DOT":0,"MEAN_MOTION_DDOT":0},{"OBJECT_NAME":"DIRECTV 12","OBJECT_ID":"2009-075A","EPOCH":"2026-09-12T04:51:48.783744","MEAN_MOTION":1.00271707,"ECCENTRICITY":0.00004102,"INCLINATION":0.0432,"RA_OF_ASC_NODE":359.9449,"ARG_OF_PERICENTER":110.7635,"MEAN_ANOMALY":210.7332,"EPHEMERIS_TYPE":0,"CLASSIFICATION_TYPE":"U","NORAD_CAT_ID":36131,"ELEMENT_SET_NO":999,"REV_AT_EPOCH":4742,"BSTAR":0,"MEAN_MOTION_DOT":-0.00000118,"MEAN_MOTION_DDOT":0},{"OBJECT_NAME":"INTELSAT 16 (IS-16)","OBJECT_ID":"2010-006A","EPOCH":"2026-09-10T03:10:38.764704","MEAN_MOTION":1.00277212,"ECCENTRICITY":0.00024289,"INCLINATION":0.0475,"RA_OF_ASC_NODE":283.5929,"ARG_OF_PERICENTER":255.88,"MEAN_ANOMALY":141.1811,"EPHEMERIS_TYPE":0,"CLASSIFICATION_TYPE":"U","NORAD_CAT_ID":36397,"ELEMENT_SET_NO":999,"REV_AT_EPOCH":6050,"BSTAR":0,"MEAN_MOTION_DOT":-0.00000266,"MEAN_MOTION_DDOT":0},{"OBJECT_NAME":"XM-5","OBJECT_ID":"2010-053A","EPOCH":"2026-09-12T06:30:54.282240","MEAN_MOTION":1.00272277,"ECCENTRICITY":0.00003468,"INCLINATION":0.07,"RA_OF_ASC_NODE":272.1984,"ARG_OF_PERICENTER":255.1763,"MEAN_ANOMALY":166.4471,"EPHEMERIS_TYPE":0,"CLASSIFICATION_TYPE":"U","NORAD_CAT_ID":37185,"ELEMENT_SET_NO":999,"REV_AT_EPOCH":5835,"BSTAR":0,"MEAN_MOTION_DOT":-3.8e-7,"MEAN_MOTION_DDOT":0}]